Regional Weather Roundup
Issued by NWS New Orleans/Baton Rouge, LA

Home | Current Version | Previous Version | Text Only | Print | Product List | Glossary On
Versions: 1 2 3 4 5 6 7 8 9 10 11 12 13 14 15 16 17 18 19 20 21 22 23 24 25 26 27 28 29 30 31 32 33 34 35 36 37 38 39 40 41 42 43 44 45 46 47 48 49 50
619
ASUS44 KLIX 231705
RWRLIX
NEW ORLEANS REGIONAL WEATHER ROUNDUP
NATIONAL WEATHER SERVICE NEW ORLEANS LA
1100 AM CST SUN NOV 23 2014

NOTE: "FAIR" INDICATES FEW OR NO CLOUDS BELOW 12,000 FEET WITH NO
      SIGNIFICANT WEATHER AND/OR OBSTRUCTIONS TO VISIBILITY.
      SKY/WX - SKY CONDITION AND SIGNIFICANT WEATHER.
      TMP - AIR TEMPERATURE.     DP    - DEWPOINT TEMPERATURE.
      RH  - RELATIVE HUMIDITY.   PRES  - PRESSURE.
      HI  - HEAT INDEX.          WCI   - WIND CHILL INDEX.

*  THESE STATIONS ARE NOT NWS OR FAA STATIONS AND ARE NOT UNDER
   NWS QUALITY CONTROL.

LAZ038-040-048-061>063-065>067-069-231800-
SOUTHEAST LOUISIANA

CITY           SKY/WX    TMP DP  RH WIND       PRES   REMARKS
N.O. AUDUBON     N/A     64  61  91 MISG        N/A
N.O. INTL ARPT PTSUNNY   68  61  78 SW17G25   29.69S
N.O. LAKEFRONT CLOUDY    66  60  81 S21       29.70R
N.O. DOWNTOWN*   N/A     64  57  77 S13G20    29.71S
SLIDELL        CLOUDY    64  60  87 S13G20    29.69F
BATON ROUGE    CLOUDY    65  60  84 SW10      29.67S
BOOTHVILLE     LGT RAIN  62  62 100 S13       29.76F FOG
BELLE CHASSE   CLOUDY    64  60  87 S20       29.70S
BOGALUSA*        N/A     67  61  81 SW13G20   29.68F
NEW ROADS*     CLOUDY    66  61  82 S10G17    29.66F
GONZALES*      CLOUDY    69  63  81 SW10G20   29.69R
HAMMOND*       CLOUDY    66  59  77 SW13G25   29.69S
HOUMA*         MOSUNNY   68  63  83 S17G25    29.72F
PORT FOURCHON* SUNNY     68  63  83 SW16G25   29.78F

$$

MSZ070-080>082-231800-
SOUTHERN MISSISSIPPI

CITY           SKY/WX    TMP DP  RH WIND       PRES   REMARKS
MCCOMB         CLOUDY    65  59  81 SW10G23   29.64F
GULFPORT       LGT RAIN  62  59  90 S12G21    29.70F
BILOXI         LGT RAIN  61  61 100 S13       29.70F
PASCAGOULA     LGT RAIN  65  60  84 SW10G21   29.76R
STENNIS ARPT*  PTSUNNY   63  57  82 MISG      29.70S

$$

COASTAL OBSERVATIONS
LAKE AND NEARSHORE STATIONS

STATION/POSITION TIME  TEMP    WIND        PRES    WAVE
                       AIR SEA DIR/SP/G            HT/PER
                 (UTC) (F)     (DEG/KT/KT) (MB)    (FT/S)
PASCAGOULA       1700   64     220/ 16/ 21 1006.6
WAVELAND YACHT   1700   60     200/ 12/ 16 1004.7
GRAND ISLE       1700   66 63  220/ 12/ 19 1006.9
SOUTHWEST PASS   1700   63 71              1008.4
NEW CANAL        1700   65 55  210/ 11/ 15 1005.9
SHELL BEACH      1700   62 53  170/ 11/ 16 1005.0

OFFSHORE STATIONS

STATION/POSITION TIME  TEMP    WIND        PRES    WAVE
                       AIR SEA DIR/SP/G            HT/PER
                 (UTC) (F)     (DEG/KT/KT) (MB)    (FT/S)
64 S DAUPHIN ISL 1626   69 72  270/ 25/ 31 1009.9    7/ 8

$$




USA.gov is the U.S. government's official web portal to all federal, state and local government web resources and services.